{"data":{"norad_id":57505,"intl_designator":"2023-113L","name":"STARLINK-30227","alt_names":[],"object_type":"PAYLOAD","status":"ACTIVE","operator":null,"country":"US","launch_date":"2023-08-07","launch_site_code":"AFETR","launch_vehicle":null,"mission":null,"orbit_class":"UNKNOWN","rcs_meters":null,"size_class":null,"mass_kg":null,"dimensions":null,"purposes":["comms"],"wikipedia_slug":null,"has_3d_model":false,"image_url":null,"decayed_at":null,"tle_current":{"epoch":"2026-05-25T02:27:43.459776Z","epoch_age_seconds":60147,"freshness":"FRESH","line1":"1 57505U 23113L   26145.10258634  .00038031  00000+0  15479-2 0  9991","line2":"2 57505  43.0018 294.7720 0008834 307.5184  52.4863 15.23837180155470","mean_motion":15.2383718,"eccentricity":0.0008834,"inclination_deg":43.0018,"raan_deg":294.772,"arg_perigee_deg":307.5184,"mean_anomaly_deg":52.4863,"bstar":0.0015479,"rev_number":15547,"period_min":94.49828491519,"perigee_km":488.2082861075,"apogee_km":500.35047136545,"semimajor_km":6872.4163787365,"source":"CELESTRAK","updated_at":"2026-05-25T13:38:18.328768Z"}}}